• In Czech Republic
  • List of Countries
  • For 7 days
  • Water Temperature
  • Satellite Maps
  • Weather Map
  • Weather Widgets
  • user-avatar
    Login

    Hourly Weather Ścinawa

    Today, 21 October, Sunday

    Time Temperature Precipitation Wind Pressure Humidity
    00:00 +8°C° 0.1 mm 3 mps 762 mmHg 75%
    01:00 +8°C° 0.1 mm 2 mps 762 mmHg 78%
    02:00 +7°C° 0 mm 2 mps 762 mmHg 81%
    03:00 +7°C° 0 mm 2 mps 762 mmHg 84%
    04:00 +7°C° 0 mm 2 mps 761 mmHg 88%
    05:00 +6°C° 0 mm 2 mps 762 mmHg 89%
    06:00 +7°C° 0 mm 1 mps 762 mmHg 91%
    07:00 +7°C° 0 mm 1 mps 762 mmHg 92%
    08:00 +9°C° 0 mm 1 mps 763 mmHg 85%
    09:00 +10°C° 0 mm 1 mps 763 mmHg 79%
    10:00 +12°C° 0 mm 1 mps 763 mmHg 73%
    11:00 +12°C° 0 mm 1 mps 763 mmHg 68%
    12:00 +12°C° 0 mm 0 mps 763 mmHg 63%
    13:00 +13°C° 0 mm 0 mps 763 mmHg 59%
    14:00 +13°C° 0 mm 0 mps 762 mmHg 60%
    15:00 +13°C° 0 mm 0 mps 762 mmHg 62%
    16:00 +12°C° 0 mm 0 mps 762 mmHg 63%
    17:00 +11°C° 0 mm 0 mps 762 mmHg 67%
    18:00 +11°C° 0 mm 1 mps 762 mmHg 72%
    19:00 +10°C° 0 mm 1 mps 762 mmHg 76%
    20:00 +9°C° 0 mm 1 mps 762 mmHg 78%
    21:00 +9°C° 0 mm 1 mps 762 mmHg 80%
    22:00 +8°C° 0 mm 1 mps 762 mmHg 81%
    23:00 +8°C° 0 mm 1 mps 762 mmHg 82%

    Tomorrow, 22 October, Monday

    Time Temperature Precipitation Wind Pressure Humidity
    00:00 +8°C° 0 mm 1 mps 762 mmHg 83%
    01:00 +7°C° 0 mm 1 mps 762 mmHg 84%
    02:00 +7°C° 0 mm 1 mps 762 mmHg 85%
    03:00 +7°C° 0 mm 1 mps 761 mmHg 86%
    04:00 +7°C° 0 mm 1 mps 761 mmHg 86%
    05:00 +7°C° 0 mm 1 mps 761 mmHg 86%
    06:00 +6°C° 0 mm 1 mps 761 mmHg 87%
    07:00 +6°C° 0 mm 1 mps 761 mmHg 87%
    08:00 +7°C° 0 mm 2 mps 761 mmHg 79%
    09:00 +9°C° 0 mm 2 mps 761 mmHg 71%
    10:00 +12°C° 0 mm 2 mps 761 mmHg 63%
    11:00 +12°C° 0 mm 3 mps 761 mmHg 60%
    12:00 +13°C° 0 mm 3 mps 760 mmHg 56%
    13:00 +14°C° 0 mm 3 mps 760 mmHg 53%
    14:00 +13°C° 0 mm 3 mps 760 mmHg 59%
    15:00 +12°C° 0 mm 4 mps 760 mmHg 64%
    16:00 +12°C° 0 mm 4 mps 759 mmHg 70%
    17:00 +11°C° 0.5 mm 4 mps 760 mmHg 75%
    18:00 +10°C° 0.5 mm 4 mps 760 mmHg 80%
    19:00 +9°C° 0.5 mm 5 mps 761 mmHg 85%
    20:00 +8°C° 0 mm 4 mps 761 mmHg 85%
    21:00 +7°C° 0 mm 4 mps 761 mmHg 85%
    22:00 +7°C° 0 mm 3 mps 762 mmHg 86%
    23:00 +5°C° 0 mm 3 mps 762 mmHg 87%

    Day after tomorrow, 23 October, Tuesday

    Time Temperature Precipitation Wind Pressure Humidity
    00:00 +5°C° 0 mm 3 mps 762 mmHg 88%
    01:00 +4°C° 0 mm 3 mps 762 mmHg 88%
    02:00 +4°C° 0 mm 3 mps 761 mmHg 88%
    03:00 +4°C° 0 mm 3 mps 761 mmHg 87%
    04:00 +4°C° 0 mm 4 mps 760 mmHg 87%
    05:00 +4°C° 0 mm 4 mps 760 mmHg 85%
    06:00 +4°C° 0 mm 4 mps 759 mmHg 83%
    07:00 +3°C° 0 mm 5 mps 759 mmHg 82%
    08:00 +4°C° 0.1 mm 6 mps 758 mmHg 78%
    09:00 +5°C° 0.1 mm 7 mps 757 mmHg 75%
    10:00 +5°C° 0.1 mm 8 mps 757 mmHg 72%
    11:00 +6°C° 0.3 mm 8 mps 755 mmHg 73%
    12:00 +6°C° 0.3 mm 9 mps 754 mmHg 74%
    13:00 +6°C° 0.3 mm 9 mps 753 mmHg 75%
    14:00 +6°C° 0.6 mm 10 mps 752 mmHg 76%
    15:00 +7°C° 0.6 mm 10 mps 751 mmHg 77%
    16:00 +7°C° 0.6 mm 10 mps 750 mmHg 79%
    17:00 +7°C° 0.3 mm 10 mps 749 mmHg 79%
    18:00 +8°C° 0.3 mm 11 mps 748 mmHg 79%
    19:00 +9°C° 0.3 mm 11 mps 747 mmHg 79%
    20:00 +9°C° 0.5 mm 11 mps 747 mmHg 80%
    21:00 +9°C° 0.5 mm 11 mps 746 mmHg 80%
    22:00 +10°C° 0.5 mm 12 mps 745 mmHg 80%
    23:00 +10°C° 1.1 mm 12 mps 745 mmHg 79%

    24 October, Wednesday

    Time Temperature Precipitation Wind Pressure Humidity
    00:00 +11°C° 1.1 mm 11 mps 744 mmHg 78%
    01:00 +11°C° 1.1 mm 11 mps 744 mmHg 77%
    02:00 +9°C° 0.6 mm 11 mps 745 mmHg 74%
    03:00 +8°C° 0.6 mm 11 mps 745 mmHg 71%
    04:00 +8°C° 0.6 mm 11 mps 745 mmHg 68%
    05:00 +7°C° 0.1 mm 10 mps 746 mmHg 68%
    06:00 +5°C° 0.1 mm 9 mps 747 mmHg 69%
    07:00 +4°C° 0.1 mm 8 mps 748 mmHg 69%
    08:00 +5°C° 0.1 mm 8 mps 749 mmHg 65%
    09:00 +6°C° 0.1 mm 9 mps 749 mmHg 62%
    10:00 +6°C° 0.1 mm 9 mps 750 mmHg 59%
    11:00 +7°C° 0 mm 9 mps 750 mmHg 55%
    12:00 +7°C° 0 mm 9 mps 750 mmHg 50%
    13:00 +8°C° 0 mm 9 mps 751 mmHg 46%
    14:00 +7°C° 0 mm 9 mps 751 mmHg 47%
    15:00 +7°C° 0 mm 8 mps 751 mmHg 49%
    16:00 +8°C° 0 mm 7 mps 752 mmHg 50%
    17:00 +6°C° 0 mm 7 mps 752 mmHg 52%
    18:00 +7°C° 0 mm 6 mps 753 mmHg 54%
    19:00 +6°C° 0 mm 5 mps 753 mmHg 56%
    20:00 +6°C° 0 mm 5 mps 753 mmHg 59%
    21:00 +5°C° 0 mm 5 mps 754 mmHg 62%
    22:00 +5°C° 0 mm 5 mps 754 mmHg 65%
    23:00 +5°C° 0 mm 5 mps 754 mmHg 69%

    25 October, Thursday

    Time Temperature Precipitation Wind Pressure Humidity
    00:00 +5°C° 0 mm 5 mps 754 mmHg 73%
    01:00 +5°C° 0 mm 5 mps 753 mmHg 77%
    02:00 +5°C° 0 mm 5 mps 753 mmHg 79%
    03:00 +6°C° 0 mm 5 mps 752 mmHg 82%
    04:00 +7°C° 0 mm 5 mps 752 mmHg 84%
    05:00 +8°C° 0.3 mm 6 mps 751 mmHg 85%
    06:00 +9°C° 0.3 mm 7 mps 751 mmHg 86%
    07:00 +10°C° 0.3 mm 7 mps 751 mmHg 88%
    08:00 +10°C° 0.1 mm 8 mps 750 mmHg 82%
    09:00 +11°C° 0.1 mm 9 mps 750 mmHg 76%
    10:00 +11°C° 0.1 mm 9 mps 750 mmHg 70%
    11:00 +11°C° 0 mm 9 mps 750 mmHg 71%
    12:00 +11°C° 0 mm 9 mps 750 mmHg 72%
    13:00 +11°C° 0 mm 8 mps 750 mmHg 73%
    14:00 +11°C° 0 mm 8 mps 750 mmHg 74%
    15:00 +11°C° 0 mm 8 mps 750 mmHg 74%
    16:00 +11°C° 0 mm 8 mps 750 mmHg 75%
    17:00 +10°C° 0.1 mm 7 mps 750 mmHg 76%
    18:00 +10°C° 0.1 mm 7 mps 750 mmHg 78%
    19:00 +10°C° 0.1 mm 7 mps 750 mmHg 79%
    20:00 +10°C° 0.1 mm 7 mps 750 mmHg 80%
    21:00 +10°C° 0.1 mm 6 mps 751 mmHg 81%
    22:00 +10°C° 0.1 mm 6 mps 751 mmHg 82%
    23:00 +10°C° 0.1 mm 6 mps 751 mmHg 83%

    26 October, Friday

    Time Temperature Precipitation Wind Pressure Humidity
    00:00 +9°C° 0.1 mm 6 mps 750 mmHg 83%
    01:00 +9°C° 0.1 mm 6 mps 750 mmHg 84%
    02:00 +9°C° 0 mm 5 mps 750 mmHg 84%
    03:00 +8°C° 0 mm 5 mps 750 mmHg 85%
    04:00 +8°C° 0 mm 5 mps 750 mmHg 85%
    05:00 +7°C° 0 mm 4 mps 750 mmHg 86%
    06:00 +7°C° 0 mm 4 mps 750 mmHg 87%
    07:00 +6°C° 0 mm 4 mps 750 mmHg 88%
    08:00 +8°C° 0 mm 4 mps 750 mmHg 82%
    09:00 +10°C° 0 mm 4 mps 749 mmHg 76%
    10:00 +11°C° 0 mm 4 mps 749 mmHg 70%
    11:00 +12°C° 0 mm 4 mps 749 mmHg 67%
    12:00 +12°C° 0 mm 4 mps 748 mmHg 64%
    13:00 +13°C° 0 mm 4 mps 747 mmHg 61%
    14:00 +13°C° 0 mm 4 mps 747 mmHg 64%
    15:00 +12°C° 0 mm 3 mps 746 mmHg 66%
    16:00 +12°C° 0 mm 3 mps 746 mmHg 68%
    17:00 +12°C° 0 mm 2 mps 746 mmHg 72%
    18:00 +10°C° 0 mm 2 mps 745 mmHg 75%
    19:00 +10°C° 0 mm 2 mps 745 mmHg 79%
    20:00 +9°C° 0 mm 3 mps 745 mmHg 81%
    21:00 +9°C° 0 mm 3 mps 745 mmHg 83%
    22:00 +9°C° 0 mm 3 mps 744 mmHg 85%
    23:00 +9°C° 0 mm 3 mps 744 mmHg 86%
    Show more